Regional Weather Roundup
Issued by NWS Huntsville, AL

Home | Current Version | Previous Version | Text Only | Print | Product List | Glossary On
Versions: 1 2 3 4 5 6 7 8 9 10 11 12 13 14 15 16 17 18 19 20 21 22 23 24 25 26 27 28 29 30 31 32 33 34 35 36 37 38 39 40 41 42 43 44 45 46 47 48 49 50
000
ASUS44 KHUN 060510
RWRHUN

WEATHER ROUNDUP FOR THE TENNESSEE VALLEY
NATIONAL WEATHER SERVICE HUNTSVILLE AL
1200 AM CDT WED MAY 06 2015

ALZ001>004-060600-
NORTHWEST ALABAMA

CITY           SKY/WX    TMP DP  RH WIND       PRES   REMARKS
COURTLAND HCN    N/A     63 N/A N/A CALM        N/A
RUSSELLVILLE     N/A     57 N/A N/A MISG        N/A
SHOALS AIRPORT CLEAR     61  55  81 CALM      30.21S
SHOALS TVA RES   N/A     61 N/A N/A MISG        N/A
$$

ALZ005>007-016-060600-
NORTH CENTRAL ALABAMA

CITY           SKY/WX    TMP DP  RH WIND       PRES   REMARKS
CULLMAN AG STN   N/A     57 N/A N/A CALM        N/A
DECATUR AP     CLEAR     60  55  83 CALM      30.21F
HUNTSVILLE AP  CLEAR     66  57  72 E3        30.21S
HUN NWS/UAH      N/A     66  56  70 NE1         N/A
MERIDIANVILLE  CLEAR     59  54  82 CALM      30.22F
REDSTONE ARSN  CLEAR     64  55  73 CALM      30.20F
VINEMONT AP    FAIR      57  55  93 CALM      30.25S
$$

ALZ008>010-060600-
NORTHEAST ALABAMA

CITY           SKY/WX    TMP DP  RH WIND       PRES   REMARKS
ALBERTVILLE    CLEAR     64  59  82 E5        30.23S
FORT PAYNE     CLEAR     55  52  88 CALM      30.24F
SCOTTSBORO HCN   N/A     59 N/A N/A MISG        N/A
VALLEY HEAD      N/A     57 N/A N/A MISG        N/A
$$

TNZ076-096-097-060600-
SOUTHEASTERN MIDDLE TENNESSEE

CITY           SKY/WX    TMP DP  RH WIND       PRES   REMARKS
TULLAHOMA      PTCLDY    63  55  77 CALM      30.25S
WINCHESTER     MOCLDY    66  57  72 CALM      30.24S
$$

...SURROUNDING SITES...

CITY           SKY/WX    TMP DP  RH WIND       PRES   REMARKS
ATLANTA        PTCLDY    67  51  56 E5        30.25S
ANNISTON       CLEAR     60  56  86 E3        30.23S
BIRMINGHAM     CLEAR     63  57  81 CALM      30.23S
CHATTANOOGA    CLOUDY    71  56  58 CALM      30.24S
CORINTH        FAIR      61  57  88 CALM      30.19R
DALTON         CLEAR     59  59 100 CALM      30.25S
GADSDEN        CLEAR    N/A N/A N/A CALM      30.21S
GOLDEN TRNGL   CLEAR     68  55  64 SE6       30.17S
HALEYVILLE       N/A     58  58 100 MISG      30.24S
JACKSON TN     CLEAR     59  56  89 CALM      30.18S
LEWISBURG      FAIR      57  55  93 CALM      30.21F
MEMPHIS        CLEAR     73  54  51 SE5       30.16S
NASHVILLE      MOCLDY    67  57  70 CALM      30.21S
OXFORD MS      FAIR      63  55  77 SE5       30.19S
ROME           CLEAR     60  57  89 NE3       30.23F
SAVANNAH       CLEAR     57  32  38 CALM      30.20S
TUPELO         CLEAR     66  55  67 CALM      30.18S
TUSCALOOSA     CLEAR     65  58  78 CALM      30.19S
$$

...GULF COAST WEATHER...

CITY           SKY/WX    TMP DP  RH WIND       PRES   REMARKS
GULFPORT       MOCLDY    72  64  76 SE10      30.13S
PASCAGOULA     CLEAR     62  61  96 CALM      30.15S
MOBILE         CLEAR     65  61  87 E5        30.15F
GULF SHORES    MOCLDY    67  65  95 CALM      30.14F
PENSACOLA      PTCLDY    67  64  90 CALM      30.14F
DESTIN         PTCLDY    70  66  87 CALM      30.15F
PANAMA CITY    PTCLDY    72  63  75 E5        30.15F
APPALACHICOLA  CLOUDY    77  65  66 E10       30.15S
$$




USA.gov is the U.S. government's official web portal to all federal, state and local government web resources and services.